<?xml version="1.0" encoding="UTF-8" standalone="no" ?>
<gpx xmlns="http://www.topografix.com/GPX/1/1" xmlns:xsi="http://www.w3.org/2001/XMLSchema-instance" xsi:schemaLocation="http://www.topografix.com/GPX/1/1 http://www.topografix.com/GPX/1/1/gpx.xsd" version="1.1" creator="VisuGPX - https://www.visugpx.com">
  <metadata>
    <name>Randonnée en Champagne Sarthoise</name>
  </metadata>
  <wpt lat="48.03817" lon="-0.1157">
    <ele>86</ele>
    <name><![CDATA[Place de l'église]]></name>
  </wpt>
  <wpt lat="48.03841" lon="-0.11673">
    <ele>88</ele>
    <name><![CDATA[Route de la Gagnerie à droite. GR365]]></name>
  </wpt>
  <wpt lat="48.0392" lon="-0.11741">
    <ele>90</ele>
    <name><![CDATA[Chemin à gauche ]]></name>
  </wpt>
  <wpt lat="48.03933" lon="-0.11754">
    <ele>90</ele>
    <name><![CDATA[Chemin à gauche GR365]]></name>
  </wpt>
  <wpt lat="48.0396" lon="-0.1295">
    <ele>109</ele>
    <name><![CDATA[Route adroite balisage jaune]]></name>
  </wpt>
  <wpt lat="48.04368" lon="-0.13691">
    <ele>120</ele>
    <name><![CDATA[Chemin du Petit Pas au Petit Chauvon]]></name>
  </wpt>
  <wpt lat="48.0398" lon="-0.13904">
    <ele>106</ele>
    <name><![CDATA[Route à gauche ]]></name>
  </wpt>
  <wpt lat="48.03971" lon="-0.13915">
    <ele>105</ele>
    <name><![CDATA[Chemin du Monceau]]></name>
  </wpt>
  <wpt lat="48.03933" lon="-0.13903">
    <ele>106</ele>
    <name><![CDATA[Chemin à gauche ]]></name>
  </wpt>
  <wpt lat="48.0385" lon="-0.13594">
    <ele>106</ele>
    <name><![CDATA[Route à gauche circuit no8 gr et jaune]]></name>
  </wpt>
  <wpt lat="48.03808" lon="-0.13282">
    <ele>101</ele>
    <name><![CDATA[Chemin à droite. GR365]]></name>
  </wpt>
  <wpt lat="48.03443" lon="-0.13545">
    <ele>106</ele>
    <name><![CDATA[À gauche. GR365]]></name>
  </wpt>
  <wpt lat="48.03082" lon="-0.13297">
    <ele>108</ele>
    <name><![CDATA[À gauche. GR365]]></name>
  </wpt>
  <wpt lat="48.02844" lon="-0.12488">
    <ele>88</ele>
    <name><![CDATA[Route à gauche. Balisage Jaune]]></name>
  </wpt>
  <wpt lat="48.03086" lon="-0.12142">
    <ele>80</ele>
    <name><![CDATA[Chemin à droite ]]></name>
  </wpt>
  <wpt lat="48.03095" lon="-0.11074">
    <ele>74</ele>
    <name><![CDATA[Pont sur la]]></name>
  </wpt>
  <wpt lat="48.03133" lon="-0.10745">
    <ele>77</ele>
    <name><![CDATA[Route à gauche ]]></name>
  </wpt>
  <wpt lat="48.03155" lon="-0.10697">
    <ele>79</ele>
    <name><![CDATA[Route des Buchailles à gauche vers GR365]]></name>
  </wpt>
  <wpt lat="48.03495" lon="-0.10582">
    <ele>92</ele>
    <name><![CDATA[Route à gauche reprendre gr et jaune]]></name>
  </wpt>
  <wpt lat="48.03847" lon="-0.11148">
    <ele>78</ele>
    <name><![CDATA[Route à gauche ]]></name>
  </wpt>
  <wpt lat="48.0381" lon="-0.11568">
    <ele>86</ele>
    <name><![CDATA[Place de l'église]]></name>
  </wpt>
  <trk>
    <name><![CDATA[Randonnée en Champagne Sarthoise]]></name>
    <trkseg>
      <trkpt lat="48.03817" lon="-0.1157">
        <ele>86</ele>
        <time>2020-09-27T14:03:12+02:00</time>
      </trkpt>
      <trkpt lat="48.03816" lon="-0.11548">
        <ele>85</ele>
        <time>2020-09-27T14:07:28+02:00</time>
      </trkpt>
      <trkpt lat="48.03827" lon="-0.11551">
        <ele>85</ele>
      </trkpt>
      <trkpt lat="48.03834" lon="-0.11557">
        <ele>84</ele>
      </trkpt>
      <trkpt lat="48.0383" lon="-0.11579">
        <ele>85</ele>
        <time>2020-09-27T14:11:44+02:00</time>
      </trkpt>
      <trkpt lat="48.03828" lon="-0.11612">
        <ele>86</ele>
        <time>2020-09-27T14:11:44+02:00</time>
      </trkpt>
      <trkpt lat="48.03824" lon="-0.11638">
        <ele>87</ele>
      </trkpt>
      <trkpt lat="48.0382" lon="-0.11656">
        <ele>88</ele>
        <time>2020-09-27T14:11:44+02:00</time>
      </trkpt>
      <trkpt lat="48.03841" lon="-0.11673">
        <ele>88</ele>
        <time>2020-09-27T14:13:52+02:00</time>
      </trkpt>
      <trkpt lat="48.03861" lon="-0.11687">
        <ele>89</ele>
        <time>2020-09-27T14:13:52+02:00</time>
      </trkpt>
      <trkpt lat="48.03882" lon="-0.11703">
        <ele>89</ele>
        <time>2020-09-27T14:13:52+02:00</time>
      </trkpt>
      <trkpt lat="48.03902" lon="-0.1172">
        <ele>90</ele>
        <time>2020-09-27T14:13:52+02:00</time>
      </trkpt>
      <trkpt lat="48.0392" lon="-0.11741">
        <ele>90</ele>
        <time>2020-09-27T14:13:52+02:00</time>
      </trkpt>
      <trkpt lat="48.03933" lon="-0.11754">
        <ele>90</ele>
      </trkpt>
      <trkpt lat="48.03934" lon="-0.11769">
        <ele>90</ele>
        <time>2020-09-27T14:13:52+02:00</time>
      </trkpt>
      <trkpt lat="48.03929" lon="-0.11802">
        <ele>91</ele>
        <time>2020-09-27T14:16:00+02:00</time>
      </trkpt>
      <trkpt lat="48.03925" lon="-0.11835">
        <ele>91</ele>
        <time>2020-09-27T14:16:00+02:00</time>
      </trkpt>
      <trkpt lat="48.03919" lon="-0.11869">
        <ele>91</ele>
        <time>2020-09-27T14:16:00+02:00</time>
      </trkpt>
      <trkpt lat="48.03913" lon="-0.11902">
        <ele>92</ele>
        <time>2020-09-27T14:16:00+02:00</time>
      </trkpt>
      <trkpt lat="48.03913" lon="-0.11936">
        <ele>92</ele>
        <time>2020-09-27T14:16:00+02:00</time>
      </trkpt>
      <trkpt lat="48.03923" lon="-0.11967">
        <ele>93</ele>
        <time>2020-09-27T14:16:00+02:00</time>
      </trkpt>
      <trkpt lat="48.03941" lon="-0.11988">
        <ele>93</ele>
        <time>2020-09-27T14:16:00+02:00</time>
      </trkpt>
      <trkpt lat="48.0396" lon="-0.12006">
        <ele>94</ele>
        <time>2020-09-27T14:18:08+02:00</time>
      </trkpt>
      <trkpt lat="48.03981" lon="-0.12021">
        <ele>95</ele>
        <time>2020-09-27T14:18:08+02:00</time>
      </trkpt>
      <trkpt lat="48.03998" lon="-0.12045">
        <ele>96</ele>
        <time>2020-09-27T14:18:08+02:00</time>
      </trkpt>
      <trkpt lat="48.04013" lon="-0.12067">
        <ele>97</ele>
        <time>2020-09-27T14:18:08+02:00</time>
      </trkpt>
      <trkpt lat="48.04025" lon="-0.12096">
        <ele>98</ele>
        <time>2020-09-27T14:18:08+02:00</time>
      </trkpt>
      <trkpt lat="48.04044" lon="-0.12115">
        <ele>98</ele>
        <time>2020-09-27T14:18:08+02:00</time>
      </trkpt>
      <trkpt lat="48.04063" lon="-0.12135">
        <ele>99</ele>
        <time>2020-09-27T14:20:16+02:00</time>
      </trkpt>
      <trkpt lat="48.04079" lon="-0.1216">
        <ele>99</ele>
        <time>2020-09-27T14:20:16+02:00</time>
      </trkpt>
      <trkpt lat="48.04087" lon="-0.12172">
        <ele>99</ele>
      </trkpt>
      <trkpt lat="48.04093" lon="-0.12185">
        <ele>99</ele>
        <time>2020-09-27T14:20:16+02:00</time>
      </trkpt>
      <trkpt lat="48.04091" lon="-0.12224">
        <ele>100</ele>
        <time>2020-09-27T14:20:16+02:00</time>
      </trkpt>
      <trkpt lat="48.04091" lon="-0.12256">
        <ele>100</ele>
        <time>2020-09-27T14:20:16+02:00</time>
      </trkpt>
      <trkpt lat="48.0409" lon="-0.1229">
        <ele>101</ele>
        <time>2020-09-27T14:22:24+02:00</time>
      </trkpt>
      <trkpt lat="48.04085" lon="-0.12324">
        <ele>103</ele>
        <time>2020-09-27T14:22:24+02:00</time>
      </trkpt>
      <trkpt lat="48.04081" lon="-0.12357">
        <ele>103</ele>
        <time>2020-09-27T14:22:24+02:00</time>
      </trkpt>
      <trkpt lat="48.04078" lon="-0.12393">
        <ele>104</ele>
        <time>2020-09-27T14:22:24+02:00</time>
      </trkpt>
      <trkpt lat="48.04076" lon="-0.12427">
        <ele>104</ele>
        <time>2020-09-27T14:22:24+02:00</time>
      </trkpt>
      <trkpt lat="48.04072" lon="-0.12458">
        <ele>104</ele>
        <time>2020-09-27T14:22:24+02:00</time>
      </trkpt>
      <trkpt lat="48.0407" lon="-0.12469">
        <ele>104</ele>
      </trkpt>
      <trkpt lat="48.04053" lon="-0.12472">
        <ele>104</ele>
        <time>2020-09-27T14:24:32+02:00</time>
      </trkpt>
      <trkpt lat="48.04031" lon="-0.12473">
        <ele>104</ele>
        <time>2020-09-27T14:24:32+02:00</time>
      </trkpt>
      <trkpt lat="48.04007" lon="-0.12476">
        <ele>105</ele>
        <time>2020-09-27T14:24:32+02:00</time>
      </trkpt>
      <trkpt lat="48.03986" lon="-0.12489">
        <ele>105</ele>
        <time>2020-09-27T14:26:40+02:00</time>
      </trkpt>
      <trkpt lat="48.03984" lon="-0.12524">
        <ele>104</ele>
        <time>2020-09-27T14:26:40+02:00</time>
      </trkpt>
      <trkpt lat="48.03987" lon="-0.12556">
        <ele>104</ele>
        <time>2020-09-27T14:26:40+02:00</time>
      </trkpt>
      <trkpt lat="48.03988" lon="-0.12588">
        <ele>104</ele>
        <time>2020-09-27T14:26:40+02:00</time>
      </trkpt>
      <trkpt lat="48.0399" lon="-0.12623">
        <ele>104</ele>
        <time>2020-09-27T14:28:48+02:00</time>
      </trkpt>
      <trkpt lat="48.03993" lon="-0.12657">
        <ele>104</ele>
        <time>2020-09-27T14:28:48+02:00</time>
      </trkpt>
      <trkpt lat="48.03987" lon="-0.12689">
        <ele>104</ele>
        <time>2020-09-27T14:28:48+02:00</time>
      </trkpt>
      <trkpt lat="48.03976" lon="-0.1272">
        <ele>103</ele>
        <time>2020-09-27T14:28:48+02:00</time>
      </trkpt>
      <trkpt lat="48.03969" lon="-0.1275">
        <ele>103</ele>
        <time>2020-09-27T14:28:48+02:00</time>
      </trkpt>
      <trkpt lat="48.0397" lon="-0.12785">
        <ele>104</ele>
        <time>2020-09-27T14:28:48+02:00</time>
      </trkpt>
      <trkpt lat="48.03968" lon="-0.12822">
        <ele>105</ele>
        <time>2020-09-27T14:30:56+02:00</time>
      </trkpt>
      <trkpt lat="48.03967" lon="-0.12857">
        <ele>106</ele>
        <time>2020-09-27T14:30:56+02:00</time>
      </trkpt>
      <trkpt lat="48.03965" lon="-0.12891">
        <ele>107</ele>
        <time>2020-09-27T14:30:56+02:00</time>
      </trkpt>
      <trkpt lat="48.03961" lon="-0.12926">
        <ele>108</ele>
        <time>2020-09-27T14:30:56+02:00</time>
      </trkpt>
      <trkpt lat="48.0396" lon="-0.1295">
        <ele>109</ele>
        <time>2020-09-27T14:33:04+02:00</time>
      </trkpt>
      <trkpt lat="48.0396" lon="-0.12977">
        <ele>110</ele>
      </trkpt>
      <trkpt lat="48.0397" lon="-0.12981">
        <ele>110</ele>
        <time>2020-09-27T14:33:04+02:00</time>
      </trkpt>
      <trkpt lat="48.03981" lon="-0.12984">
        <ele>111</ele>
      </trkpt>
      <trkpt lat="48.03991" lon="-0.12989">
        <ele>111</ele>
      </trkpt>
      <trkpt lat="48.03991" lon="-0.13">
        <ele>112</ele>
        <time>2020-09-27T14:33:04+02:00</time>
      </trkpt>
      <trkpt lat="48.03994" lon="-0.13028">
        <ele>112</ele>
        <time>2020-09-27T14:35:12+02:00</time>
      </trkpt>
      <trkpt lat="48.03996" lon="-0.13062">
        <ele>113</ele>
        <time>2020-09-27T14:35:12+02:00</time>
      </trkpt>
      <trkpt lat="48.03993" lon="-0.13104">
        <ele>113</ele>
        <time>2020-09-27T14:35:12+02:00</time>
      </trkpt>
      <trkpt lat="48.04002" lon="-0.13132">
        <ele>113</ele>
        <time>2020-09-27T14:35:12+02:00</time>
      </trkpt>
      <trkpt lat="48.04019" lon="-0.13155">
        <ele>114</ele>
        <time>2020-09-27T14:35:12+02:00</time>
      </trkpt>
      <trkpt lat="48.04039" lon="-0.1317">
        <ele>114</ele>
        <time>2020-09-27T14:37:20+02:00</time>
      </trkpt>
      <trkpt lat="48.0406" lon="-0.13184">
        <ele>115</ele>
        <time>2020-09-27T14:37:20+02:00</time>
      </trkpt>
      <trkpt lat="48.04081" lon="-0.13195">
        <ele>116</ele>
        <time>2020-09-27T14:37:20+02:00</time>
      </trkpt>
      <trkpt lat="48.04102" lon="-0.13216">
        <ele>117</ele>
        <time>2020-09-27T14:37:20+02:00</time>
      </trkpt>
      <trkpt lat="48.04119" lon="-0.13238">
        <ele>118</ele>
        <time>2020-09-27T14:37:20+02:00</time>
      </trkpt>
      <trkpt lat="48.04137" lon="-0.1326">
        <ele>119</ele>
        <time>2020-09-27T14:37:20+02:00</time>
      </trkpt>
      <trkpt lat="48.04154" lon="-0.13285">
        <ele>119</ele>
        <time>2020-09-27T14:39:28+02:00</time>
      </trkpt>
      <trkpt lat="48.04169" lon="-0.13311">
        <ele>120</ele>
        <time>2020-09-27T14:39:28+02:00</time>
      </trkpt>
      <trkpt lat="48.04187" lon="-0.13334">
        <ele>121</ele>
        <time>2020-09-27T14:39:28+02:00</time>
      </trkpt>
      <trkpt lat="48.04199" lon="-0.13363">
        <ele>122</ele>
        <time>2020-09-27T14:39:28+02:00</time>
      </trkpt>
      <trkpt lat="48.04213" lon="-0.13389">
        <ele>122</ele>
        <time>2020-09-27T14:39:28+02:00</time>
      </trkpt>
      <trkpt lat="48.04227" lon="-0.13415">
        <ele>124</ele>
        <time>2020-09-27T14:39:28+02:00</time>
      </trkpt>
      <trkpt lat="48.04242" lon="-0.13443">
        <ele>125</ele>
        <time>2020-09-27T14:41:36+02:00</time>
      </trkpt>
      <trkpt lat="48.04254" lon="-0.13471">
        <ele>126</ele>
        <time>2020-09-27T14:41:36+02:00</time>
      </trkpt>
      <trkpt lat="48.04267" lon="-0.135">
        <ele>126</ele>
        <time>2020-09-27T14:41:36+02:00</time>
      </trkpt>
      <trkpt lat="48.04282" lon="-0.13527">
        <ele>125</ele>
        <time>2020-09-27T14:41:36+02:00</time>
      </trkpt>
      <trkpt lat="48.043" lon="-0.13551">
        <ele>125</ele>
        <time>2020-09-27T14:41:36+02:00</time>
      </trkpt>
      <trkpt lat="48.04316" lon="-0.13579">
        <ele>124</ele>
        <time>2020-09-27T14:41:36+02:00</time>
      </trkpt>
      <trkpt lat="48.0433" lon="-0.13604">
        <ele>123</ele>
        <time>2020-09-27T14:43:44+02:00</time>
      </trkpt>
      <trkpt lat="48.04343" lon="-0.13633">
        <ele>121</ele>
        <time>2020-09-27T14:43:44+02:00</time>
      </trkpt>
      <trkpt lat="48.04355" lon="-0.13662">
        <ele>120</ele>
        <time>2020-09-27T14:43:44+02:00</time>
      </trkpt>
      <trkpt lat="48.04368" lon="-0.13691">
        <ele>120</ele>
        <time>2020-09-27T14:43:44+02:00</time>
      </trkpt>
      <trkpt lat="48.04366" lon="-0.13702">
        <ele>120</ele>
      </trkpt>
      <trkpt lat="48.04347" lon="-0.13704">
        <ele>118</ele>
        <time>2020-09-27T14:43:44+02:00</time>
      </trkpt>
      <trkpt lat="48.04324" lon="-0.1371">
        <ele>117</ele>
        <time>2020-09-27T14:45:52+02:00</time>
      </trkpt>
      <trkpt lat="48.04301" lon="-0.13715">
        <ele>117</ele>
        <time>2020-09-27T14:45:52+02:00</time>
      </trkpt>
      <trkpt lat="48.04279" lon="-0.13725">
        <ele>116</ele>
        <time>2020-09-27T14:45:52+02:00</time>
      </trkpt>
      <trkpt lat="48.04256" lon="-0.13734">
        <ele>115</ele>
        <time>2020-09-27T14:45:52+02:00</time>
      </trkpt>
      <trkpt lat="48.04235" lon="-0.13749">
        <ele>115</ele>
        <time>2020-09-27T14:45:52+02:00</time>
      </trkpt>
      <trkpt lat="48.04214" lon="-0.13761">
        <ele>115</ele>
        <time>2020-09-27T14:48:00+02:00</time>
      </trkpt>
      <trkpt lat="48.04192" lon="-0.13772">
        <ele>114</ele>
        <time>2020-09-27T14:48:00+02:00</time>
      </trkpt>
      <trkpt lat="48.04172" lon="-0.13788">
        <ele>114</ele>
        <time>2020-09-27T14:48:00+02:00</time>
      </trkpt>
      <trkpt lat="48.04151" lon="-0.13798">
        <ele>113</ele>
        <time>2020-09-27T14:48:00+02:00</time>
      </trkpt>
      <trkpt lat="48.0413" lon="-0.13812">
        <ele>113</ele>
        <time>2020-09-27T14:52:16+02:00</time>
      </trkpt>
      <trkpt lat="48.0411" lon="-0.13829">
        <ele>112</ele>
        <time>2020-09-27T14:52:16+02:00</time>
      </trkpt>
      <trkpt lat="48.04088" lon="-0.13839">
        <ele>112</ele>
        <time>2020-09-27T14:52:16+02:00</time>
      </trkpt>
      <trkpt lat="48.04067" lon="-0.13855">
        <ele>111</ele>
        <time>2020-09-27T14:52:16+02:00</time>
      </trkpt>
      <trkpt lat="48.04045" lon="-0.13866">
        <ele>109</ele>
        <time>2020-09-27T14:52:16+02:00</time>
      </trkpt>
      <trkpt lat="48.04022" lon="-0.1388">
        <ele>107</ele>
        <time>2020-09-27T14:54:24+02:00</time>
      </trkpt>
      <trkpt lat="48.04002" lon="-0.13897">
        <ele>106</ele>
        <time>2020-09-27T14:54:24+02:00</time>
      </trkpt>
      <trkpt lat="48.0398" lon="-0.13904">
        <ele>106</ele>
        <time>2020-09-27T14:54:24+02:00</time>
      </trkpt>
      <trkpt lat="48.03971" lon="-0.13915">
        <ele>105</ele>
      </trkpt>
      <trkpt lat="48.03956" lon="-0.13903">
        <ele>106</ele>
        <time>2020-09-27T14:54:24+02:00</time>
      </trkpt>
      <trkpt lat="48.03946" lon="-0.13902">
        <ele>106</ele>
      </trkpt>
      <trkpt lat="48.03933" lon="-0.13903">
        <ele>106</ele>
        <time>2020-09-27T14:56:32+02:00</time>
      </trkpt>
      <trkpt lat="48.03924" lon="-0.13905">
        <ele>106</ele>
      </trkpt>
      <trkpt lat="48.03913" lon="-0.13891">
        <ele>107</ele>
        <time>2020-09-27T14:56:32+02:00</time>
      </trkpt>
      <trkpt lat="48.03897" lon="-0.13862">
        <ele>107</ele>
        <time>2020-09-27T14:56:32+02:00</time>
      </trkpt>
      <trkpt lat="48.03886" lon="-0.13829">
        <ele>108</ele>
        <time>2020-09-27T14:56:32+02:00</time>
      </trkpt>
      <trkpt lat="48.03879" lon="-0.13796">
        <ele>109</ele>
        <time>2020-09-27T14:58:40+02:00</time>
      </trkpt>
      <trkpt lat="48.03874" lon="-0.1376">
        <ele>109</ele>
        <time>2020-09-27T14:58:40+02:00</time>
      </trkpt>
      <trkpt lat="48.03873" lon="-0.1373">
        <ele>109</ele>
        <time>2020-09-27T14:58:40+02:00</time>
      </trkpt>
      <trkpt lat="48.03869" lon="-0.13695">
        <ele>108</ele>
        <time>2020-09-27T14:58:40+02:00</time>
      </trkpt>
      <trkpt lat="48.03862" lon="-0.13662">
        <ele>108</ele>
        <time>2020-09-27T14:58:40+02:00</time>
      </trkpt>
      <trkpt lat="48.03855" lon="-0.13629">
        <ele>107</ele>
        <time>2020-09-27T14:58:40+02:00</time>
      </trkpt>
      <trkpt lat="48.0385" lon="-0.13594">
        <ele>106</ele>
        <time>2020-09-27T15:00:48+02:00</time>
      </trkpt>
      <trkpt lat="48.03841" lon="-0.13565">
        <ele>105</ele>
        <time>2020-09-27T15:00:48+02:00</time>
      </trkpt>
      <trkpt lat="48.03842" lon="-0.1353">
        <ele>104</ele>
        <time>2020-09-27T15:00:48+02:00</time>
      </trkpt>
      <trkpt lat="48.03841" lon="-0.13494">
        <ele>103</ele>
        <time>2020-09-27T15:00:48+02:00</time>
      </trkpt>
      <trkpt lat="48.03837" lon="-0.1346">
        <ele>103</ele>
        <time>2020-09-27T15:02:56+02:00</time>
      </trkpt>
      <trkpt lat="48.03833" lon="-0.13426">
        <ele>102</ele>
        <time>2020-09-27T15:02:56+02:00</time>
      </trkpt>
      <trkpt lat="48.0383" lon="-0.13395">
        <ele>101</ele>
        <time>2020-09-27T15:02:56+02:00</time>
      </trkpt>
      <trkpt lat="48.03823" lon="-0.1336">
        <ele>100</ele>
        <time>2020-09-27T15:02:56+02:00</time>
      </trkpt>
      <trkpt lat="48.03815" lon="-0.13328">
        <ele>100</ele>
        <time>2020-09-27T15:02:56+02:00</time>
      </trkpt>
      <trkpt lat="48.03809" lon="-0.13308">
        <ele>100</ele>
      </trkpt>
      <trkpt lat="48.03808" lon="-0.13282">
        <ele>101</ele>
        <time>2020-09-27T15:02:56+02:00</time>
      </trkpt>
      <trkpt lat="48.03789" lon="-0.13288">
        <ele>100</ele>
        <time>2020-09-27T15:05:04+02:00</time>
      </trkpt>
      <trkpt lat="48.03766" lon="-0.13292">
        <ele>99</ele>
        <time>2020-09-27T15:05:04+02:00</time>
      </trkpt>
      <trkpt lat="48.03744" lon="-0.13301">
        <ele>98</ele>
        <time>2020-09-27T15:05:04+02:00</time>
      </trkpt>
      <trkpt lat="48.03721" lon="-0.13306">
        <ele>97</ele>
        <time>2020-09-27T15:07:12+02:00</time>
      </trkpt>
      <trkpt lat="48.03699" lon="-0.13313">
        <ele>95</ele>
        <time>2020-09-27T15:07:12+02:00</time>
      </trkpt>
      <trkpt lat="48.03677" lon="-0.13317">
        <ele>94</ele>
        <time>2020-09-27T15:07:12+02:00</time>
      </trkpt>
      <trkpt lat="48.03655" lon="-0.13327">
        <ele>95</ele>
        <time>2020-09-27T15:07:12+02:00</time>
      </trkpt>
      <trkpt lat="48.03632" lon="-0.13336">
        <ele>97</ele>
        <time>2020-09-27T15:07:12+02:00</time>
      </trkpt>
      <trkpt lat="48.03611" lon="-0.13348">
        <ele>99</ele>
        <time>2020-09-27T15:09:20+02:00</time>
      </trkpt>
      <trkpt lat="48.0359" lon="-0.13363">
        <ele>100</ele>
        <time>2020-09-27T15:09:20+02:00</time>
      </trkpt>
      <trkpt lat="48.0357" lon="-0.13382">
        <ele>101</ele>
        <time>2020-09-27T15:09:20+02:00</time>
      </trkpt>
      <trkpt lat="48.03552" lon="-0.13404">
        <ele>102</ele>
        <time>2020-09-27T15:09:20+02:00</time>
      </trkpt>
      <trkpt lat="48.03536" lon="-0.13429">
        <ele>103</ele>
        <time>2020-09-27T15:09:20+02:00</time>
      </trkpt>
      <trkpt lat="48.03518" lon="-0.1345">
        <ele>104</ele>
        <time>2020-09-27T15:11:28+02:00</time>
      </trkpt>
      <trkpt lat="48.03497" lon="-0.13465">
        <ele>105</ele>
        <time>2020-09-27T15:11:28+02:00</time>
      </trkpt>
      <trkpt lat="48.03483" lon="-0.13488">
        <ele>105</ele>
        <time>2020-09-27T15:11:28+02:00</time>
      </trkpt>
      <trkpt lat="48.03463" lon="-0.13514">
        <ele>105</ele>
        <time>2020-09-27T15:11:28+02:00</time>
      </trkpt>
      <trkpt lat="48.03448" lon="-0.13534">
        <ele>106</ele>
      </trkpt>
      <trkpt lat="48.03443" lon="-0.13545">
        <ele>106</ele>
      </trkpt>
      <trkpt lat="48.03439" lon="-0.13538">
        <ele>106</ele>
        <time>2020-09-27T15:11:28+02:00</time>
      </trkpt>
      <trkpt lat="48.03436" lon="-0.13504">
        <ele>106</ele>
        <time>2020-09-27T15:13:36+02:00</time>
      </trkpt>
      <trkpt lat="48.03426" lon="-0.13474">
        <ele>107</ele>
        <time>2020-09-27T15:13:36+02:00</time>
      </trkpt>
      <trkpt lat="48.03414" lon="-0.13442">
        <ele>107</ele>
        <time>2020-09-27T15:13:36+02:00</time>
      </trkpt>
      <trkpt lat="48.03405" lon="-0.13411">
        <ele>107</ele>
        <time>2020-09-27T15:13:36+02:00</time>
      </trkpt>
      <trkpt lat="48.03408" lon="-0.13376">
        <ele>106</ele>
        <time>2020-09-27T15:13:36+02:00</time>
      </trkpt>
      <trkpt lat="48.03414" lon="-0.13343">
        <ele>105</ele>
        <time>2020-09-27T15:13:36+02:00</time>
      </trkpt>
      <trkpt lat="48.03422" lon="-0.1331">
        <ele>104</ele>
        <time>2020-09-27T15:15:44+02:00</time>
      </trkpt>
      <trkpt lat="48.03427" lon="-0.13277">
        <ele>104</ele>
        <time>2020-09-27T15:15:44+02:00</time>
      </trkpt>
      <trkpt lat="48.03427" lon="-0.13242">
        <ele>103</ele>
        <time>2020-09-27T15:15:44+02:00</time>
      </trkpt>
      <trkpt lat="48.03427" lon="-0.13207">
        <ele>102</ele>
        <time>2020-09-27T15:15:44+02:00</time>
      </trkpt>
      <trkpt lat="48.03421" lon="-0.13174">
        <ele>101</ele>
        <time>2020-09-27T15:15:44+02:00</time>
      </trkpt>
      <trkpt lat="48.03413" lon="-0.13142">
        <ele>100</ele>
        <time>2020-09-27T15:15:44+02:00</time>
      </trkpt>
      <trkpt lat="48.03401" lon="-0.13113">
        <ele>99</ele>
        <time>2020-09-27T15:17:52+02:00</time>
      </trkpt>
      <trkpt lat="48.03387" lon="-0.13086">
        <ele>99</ele>
        <time>2020-09-27T15:17:52+02:00</time>
      </trkpt>
      <trkpt lat="48.03371" lon="-0.13061">
        <ele>98</ele>
        <time>2020-09-27T15:17:52+02:00</time>
      </trkpt>
      <trkpt lat="48.03359" lon="-0.13036">
        <ele>96</ele>
      </trkpt>
      <trkpt lat="48.03342" lon="-0.13006">
        <ele>95</ele>
      </trkpt>
      <trkpt lat="48.03322" lon="-0.13036">
        <ele>98</ele>
      </trkpt>
      <trkpt lat="48.03299" lon="-0.13065">
        <ele>100</ele>
      </trkpt>
      <trkpt lat="48.03279" lon="-0.13096">
        <ele>102</ele>
      </trkpt>
      <trkpt lat="48.03258" lon="-0.13125">
        <ele>103</ele>
      </trkpt>
      <trkpt lat="48.03241" lon="-0.13148">
        <ele>105</ele>
      </trkpt>
      <trkpt lat="48.03229" lon="-0.13167">
        <ele>106</ele>
      </trkpt>
      <trkpt lat="48.03215" lon="-0.13187">
        <ele>106</ele>
      </trkpt>
      <trkpt lat="48.03198" lon="-0.13205">
        <ele>107</ele>
      </trkpt>
      <trkpt lat="48.03187" lon="-0.13221">
        <ele>107</ele>
      </trkpt>
      <trkpt lat="48.03164" lon="-0.13239">
        <ele>107</ele>
        <time>2020-09-27T15:22:08+02:00</time>
      </trkpt>
      <trkpt lat="48.03144" lon="-0.13257">
        <ele>107</ele>
        <time>2020-09-27T15:22:08+02:00</time>
      </trkpt>
      <trkpt lat="48.03124" lon="-0.13271">
        <ele>107</ele>
        <time>2020-09-27T15:22:08+02:00</time>
      </trkpt>
      <trkpt lat="48.03103" lon="-0.13284">
        <ele>108</ele>
        <time>2020-09-27T15:24:16+02:00</time>
      </trkpt>
      <trkpt lat="48.03082" lon="-0.13297">
        <ele>108</ele>
        <time>2020-09-27T15:24:16+02:00</time>
      </trkpt>
      <trkpt lat="48.0307" lon="-0.13302">
        <ele>108</ele>
      </trkpt>
      <trkpt lat="48.03067" lon="-0.13287">
        <ele>108</ele>
      </trkpt>
      <trkpt lat="48.03069" lon="-0.13269">
        <ele>108</ele>
        <time>2020-09-27T15:26:24+02:00</time>
      </trkpt>
      <trkpt lat="48.03066" lon="-0.13236">
        <ele>107</ele>
        <time>2020-09-27T15:26:24+02:00</time>
      </trkpt>
      <trkpt lat="48.03056" lon="-0.13205">
        <ele>106</ele>
        <time>2020-09-27T15:26:24+02:00</time>
      </trkpt>
      <trkpt lat="48.03051" lon="-0.13172">
        <ele>105</ele>
        <time>2020-09-27T15:26:24+02:00</time>
      </trkpt>
      <trkpt lat="48.03045" lon="-0.1314">
        <ele>104</ele>
        <time>2020-09-27T15:26:24+02:00</time>
      </trkpt>
      <trkpt lat="48.03033" lon="-0.1311">
        <ele>103</ele>
        <time>2020-09-27T15:26:24+02:00</time>
      </trkpt>
      <trkpt lat="48.03023" lon="-0.1308">
        <ele>102</ele>
        <time>2020-09-27T15:28:32+02:00</time>
      </trkpt>
      <trkpt lat="48.0301" lon="-0.13051">
        <ele>101</ele>
        <time>2020-09-27T15:28:32+02:00</time>
      </trkpt>
      <trkpt lat="48.03001" lon="-0.1302">
        <ele>100</ele>
        <time>2020-09-27T15:28:32+02:00</time>
      </trkpt>
      <trkpt lat="48.02994" lon="-0.12987">
        <ele>100</ele>
        <time>2020-09-27T15:28:32+02:00</time>
      </trkpt>
      <trkpt lat="48.0299" lon="-0.12954">
        <ele>98</ele>
        <time>2020-09-27T15:28:32+02:00</time>
      </trkpt>
      <trkpt lat="48.02982" lon="-0.12923">
        <ele>98</ele>
        <time>2020-09-27T15:28:32+02:00</time>
      </trkpt>
      <trkpt lat="48.02977" lon="-0.12895">
        <ele>97</ele>
      </trkpt>
      <trkpt lat="48.02968" lon="-0.12858">
        <ele>96</ele>
      </trkpt>
      <trkpt lat="48.0296" lon="-0.12822">
        <ele>96</ele>
      </trkpt>
      <trkpt lat="48.0295" lon="-0.1278">
        <ele>95</ele>
      </trkpt>
      <trkpt lat="48.02939" lon="-0.12739">
        <ele>95</ele>
      </trkpt>
      <trkpt lat="48.0293" lon="-0.12706">
        <ele>94</ele>
      </trkpt>
      <trkpt lat="48.02918" lon="-0.12679">
        <ele>93</ele>
      </trkpt>
      <trkpt lat="48.02906" lon="-0.12649">
        <ele>93</ele>
      </trkpt>
      <trkpt lat="48.02899" lon="-0.1262">
        <ele>92</ele>
      </trkpt>
      <trkpt lat="48.02896" lon="-0.12592">
        <ele>91</ele>
      </trkpt>
      <trkpt lat="48.02887" lon="-0.12559">
        <ele>90</ele>
      </trkpt>
      <trkpt lat="48.0288" lon="-0.12537">
        <ele>90</ele>
      </trkpt>
      <trkpt lat="48.02867" lon="-0.12518">
        <ele>89</ele>
      </trkpt>
      <trkpt lat="48.02856" lon="-0.125">
        <ele>89</ele>
      </trkpt>
      <trkpt lat="48.02844" lon="-0.12488">
        <ele>88</ele>
        <time>2020-09-27T15:34:56+02:00</time>
      </trkpt>
      <trkpt lat="48.02848" lon="-0.12484">
        <ele>88</ele>
      </trkpt>
      <trkpt lat="48.02863" lon="-0.12475">
        <ele>87</ele>
        <time>2020-09-27T15:37:04+02:00</time>
      </trkpt>
      <trkpt lat="48.02882" lon="-0.12457">
        <ele>87</ele>
        <time>2020-09-27T15:37:04+02:00</time>
      </trkpt>
      <trkpt lat="48.02898" lon="-0.12434">
        <ele>86</ele>
        <time>2020-09-27T15:37:04+02:00</time>
      </trkpt>
      <trkpt lat="48.0291" lon="-0.12405">
        <ele>85</ele>
        <time>2020-09-27T15:39:12+02:00</time>
      </trkpt>
      <trkpt lat="48.02924" lon="-0.12375">
        <ele>85</ele>
        <time>2020-09-27T15:39:12+02:00</time>
      </trkpt>
      <trkpt lat="48.02932" lon="-0.12343">
        <ele>84</ele>
        <time>2020-09-27T15:39:12+02:00</time>
      </trkpt>
      <trkpt lat="48.02946" lon="-0.12316">
        <ele>83</ele>
        <time>2020-09-27T15:39:12+02:00</time>
      </trkpt>
      <trkpt lat="48.02959" lon="-0.12287">
        <ele>83</ele>
        <time>2020-09-27T15:39:12+02:00</time>
      </trkpt>
      <trkpt lat="48.02974" lon="-0.12262">
        <ele>82</ele>
        <time>2020-09-27T15:39:12+02:00</time>
      </trkpt>
      <trkpt lat="48.02993" lon="-0.12242">
        <ele>82</ele>
        <time>2020-09-27T15:39:12+02:00</time>
      </trkpt>
      <trkpt lat="48.03011" lon="-0.12221">
        <ele>80</ele>
        <time>2020-09-27T15:41:20+02:00</time>
      </trkpt>
      <trkpt lat="48.0303" lon="-0.12202">
        <ele>79</ele>
        <time>2020-09-27T15:41:20+02:00</time>
      </trkpt>
      <trkpt lat="48.0305" lon="-0.12183">
        <ele>79</ele>
        <time>2020-09-27T15:41:20+02:00</time>
      </trkpt>
      <trkpt lat="48.03068" lon="-0.12162">
        <ele>79</ele>
        <time>2020-09-27T15:41:20+02:00</time>
      </trkpt>
      <trkpt lat="48.03086" lon="-0.12142">
        <ele>80</ele>
        <time>2020-09-27T15:41:20+02:00</time>
      </trkpt>
      <trkpt lat="48.03094" lon="-0.1213">
        <ele>81</ele>
      </trkpt>
      <trkpt lat="48.03077" lon="-0.12113">
        <ele>81</ele>
        <time>2020-09-27T15:41:20+02:00</time>
      </trkpt>
      <trkpt lat="48.03057" lon="-0.12097">
        <ele>80</ele>
        <time>2020-09-27T15:43:28+02:00</time>
      </trkpt>
      <trkpt lat="48.03036" lon="-0.12081">
        <ele>78</ele>
        <time>2020-09-27T15:43:28+02:00</time>
      </trkpt>
      <trkpt lat="48.03017" lon="-0.12064">
        <ele>77</ele>
        <time>2020-09-27T15:43:28+02:00</time>
      </trkpt>
      <trkpt lat="48.02998" lon="-0.12044">
        <ele>77</ele>
        <time>2020-09-27T15:43:28+02:00</time>
      </trkpt>
      <trkpt lat="48.02978" lon="-0.12026">
        <ele>76</ele>
        <time>2020-09-27T15:43:28+02:00</time>
      </trkpt>
      <trkpt lat="48.02966" lon="-0.11996">
        <ele>77</ele>
        <time>2020-09-27T15:43:28+02:00</time>
      </trkpt>
      <trkpt lat="48.02965" lon="-0.11962">
        <ele>77</ele>
        <time>2020-09-27T15:45:36+02:00</time>
      </trkpt>
      <trkpt lat="48.02973" lon="-0.11932">
        <ele>77</ele>
        <time>2020-09-27T15:45:36+02:00</time>
      </trkpt>
      <trkpt lat="48.0298" lon="-0.11898">
        <ele>78</ele>
        <time>2020-09-27T15:45:36+02:00</time>
      </trkpt>
      <trkpt lat="48.02989" lon="-0.1187">
        <ele>78</ele>
        <time>2020-09-27T15:45:36+02:00</time>
      </trkpt>
      <trkpt lat="48.02994" lon="-0.11833">
        <ele>79</ele>
        <time>2020-09-27T15:45:36+02:00</time>
      </trkpt>
      <trkpt lat="48.03" lon="-0.11801">
        <ele>79</ele>
        <time>2020-09-27T15:45:36+02:00</time>
      </trkpt>
      <trkpt lat="48.03008" lon="-0.11768">
        <ele>79</ele>
        <time>2020-09-27T15:45:36+02:00</time>
      </trkpt>
      <trkpt lat="48.0301" lon="-0.11734">
        <ele>79</ele>
        <time>2020-09-27T15:47:44+02:00</time>
      </trkpt>
      <trkpt lat="48.03018" lon="-0.11702">
        <ele>79</ele>
        <time>2020-09-27T15:47:44+02:00</time>
      </trkpt>
      <trkpt lat="48.03027" lon="-0.1167">
        <ele>79</ele>
        <time>2020-09-27T15:47:44+02:00</time>
      </trkpt>
      <trkpt lat="48.03032" lon="-0.11637">
        <ele>79</ele>
        <time>2020-09-27T15:47:44+02:00</time>
      </trkpt>
      <trkpt lat="48.0304" lon="-0.11605">
        <ele>79</ele>
        <time>2020-09-27T15:47:44+02:00</time>
      </trkpt>
      <trkpt lat="48.03046" lon="-0.11571">
        <ele>80</ele>
        <time>2020-09-27T15:47:44+02:00</time>
      </trkpt>
      <trkpt lat="48.03054" lon="-0.11538">
        <ele>81</ele>
        <time>2020-09-27T15:49:52+02:00</time>
      </trkpt>
      <trkpt lat="48.03061" lon="-0.11503">
        <ele>82</ele>
        <time>2020-09-27T15:49:52+02:00</time>
      </trkpt>
      <trkpt lat="48.03065" lon="-0.11473">
        <ele>81</ele>
        <time>2020-09-27T15:49:52+02:00</time>
      </trkpt>
      <trkpt lat="48.03071" lon="-0.11438">
        <ele>80</ele>
        <time>2020-09-27T15:49:52+02:00</time>
      </trkpt>
      <trkpt lat="48.03078" lon="-0.11405">
        <ele>80</ele>
        <time>2020-09-27T15:49:52+02:00</time>
      </trkpt>
      <trkpt lat="48.03086" lon="-0.11373">
        <ele>80</ele>
        <time>2020-09-27T15:49:52+02:00</time>
      </trkpt>
      <trkpt lat="48.0309" lon="-0.11339">
        <ele>79</ele>
        <time>2020-09-27T15:54:08+02:00</time>
      </trkpt>
      <trkpt lat="48.03095" lon="-0.11308">
        <ele>79</ele>
        <time>2020-09-27T15:56:16+02:00</time>
      </trkpt>
      <trkpt lat="48.03102" lon="-0.11274">
        <ele>79</ele>
        <time>2020-09-27T15:56:16+02:00</time>
      </trkpt>
      <trkpt lat="48.03108" lon="-0.11241">
        <ele>78</ele>
        <time>2020-09-27T15:56:16+02:00</time>
      </trkpt>
      <trkpt lat="48.03111" lon="-0.11207">
        <ele>77</ele>
        <time>2020-09-27T15:58:24+02:00</time>
      </trkpt>
      <trkpt lat="48.03109" lon="-0.11191">
        <ele>77</ele>
      </trkpt>
      <trkpt lat="48.03114" lon="-0.11175">
        <ele>76</ele>
        <time>2020-09-27T15:58:24+02:00</time>
      </trkpt>
      <trkpt lat="48.03098" lon="-0.11141">
        <ele>75</ele>
        <time>2020-09-27T15:58:24+02:00</time>
      </trkpt>
      <trkpt lat="48.03096" lon="-0.11107">
        <ele>74</ele>
        <time>2020-09-27T15:58:24+02:00</time>
      </trkpt>
      <trkpt lat="48.03095" lon="-0.11074">
        <ele>74</ele>
        <time>2020-09-27T15:58:24+02:00</time>
      </trkpt>
      <trkpt lat="48.03093" lon="-0.1104">
        <ele>73</ele>
        <time>2020-09-27T16:00:32+02:00</time>
      </trkpt>
      <trkpt lat="48.03094" lon="-0.11007">
        <ele>72</ele>
        <time>2020-09-27T16:00:32+02:00</time>
      </trkpt>
      <trkpt lat="48.03092" lon="-0.10973">
        <ele>72</ele>
        <time>2020-09-27T16:00:32+02:00</time>
      </trkpt>
      <trkpt lat="48.03092" lon="-0.10939">
        <ele>72</ele>
        <time>2020-09-27T16:00:32+02:00</time>
      </trkpt>
      <trkpt lat="48.03093" lon="-0.10904">
        <ele>73</ele>
        <time>2020-09-27T16:00:32+02:00</time>
      </trkpt>
      <trkpt lat="48.031" lon="-0.10872">
        <ele>74</ele>
        <time>2020-09-27T16:02:40+02:00</time>
      </trkpt>
      <trkpt lat="48.03107" lon="-0.1084">
        <ele>75</ele>
        <time>2020-09-27T16:02:40+02:00</time>
      </trkpt>
      <trkpt lat="48.03113" lon="-0.10807">
        <ele>76</ele>
        <time>2020-09-27T16:02:40+02:00</time>
      </trkpt>
      <trkpt lat="48.03122" lon="-0.10776">
        <ele>77</ele>
        <time>2020-09-27T16:02:40+02:00</time>
      </trkpt>
      <trkpt lat="48.03133" lon="-0.10745">
        <ele>77</ele>
        <time>2020-09-27T16:02:40+02:00</time>
      </trkpt>
      <trkpt lat="48.03137" lon="-0.10724">
        <ele>78</ele>
      </trkpt>
      <trkpt lat="48.03141" lon="-0.10705">
        <ele>78</ele>
        <time>2020-09-27T16:04:48+02:00</time>
      </trkpt>
      <trkpt lat="48.03155" lon="-0.10697">
        <ele>79</ele>
        <time>2020-09-27T16:04:48+02:00</time>
      </trkpt>
      <trkpt lat="48.03168" lon="-0.1068">
        <ele>80</ele>
      </trkpt>
      <trkpt lat="48.03183" lon="-0.10666">
        <ele>80</ele>
        <time>2020-09-27T16:04:48+02:00</time>
      </trkpt>
      <trkpt lat="48.03203" lon="-0.10662">
        <ele>81</ele>
        <time>2020-09-27T16:04:48+02:00</time>
      </trkpt>
      <trkpt lat="48.03226" lon="-0.10657">
        <ele>81</ele>
        <time>2020-09-27T16:04:48+02:00</time>
      </trkpt>
      <trkpt lat="48.03249" lon="-0.10654">
        <ele>82</ele>
        <time>2020-09-27T16:06:56+02:00</time>
      </trkpt>
      <trkpt lat="48.03272" lon="-0.1065">
        <ele>82</ele>
        <time>2020-09-27T16:06:56+02:00</time>
      </trkpt>
      <trkpt lat="48.03295" lon="-0.10645">
        <ele>82</ele>
        <time>2020-09-27T16:06:56+02:00</time>
      </trkpt>
      <trkpt lat="48.03318" lon="-0.10635">
        <ele>82</ele>
        <time>2020-09-27T16:06:56+02:00</time>
      </trkpt>
      <trkpt lat="48.03341" lon="-0.10629">
        <ele>83</ele>
        <time>2020-09-27T16:06:56+02:00</time>
      </trkpt>
      <trkpt lat="48.03363" lon="-0.10627">
        <ele>84</ele>
        <time>2020-09-27T16:06:56+02:00</time>
      </trkpt>
      <trkpt lat="48.03386" lon="-0.1063">
        <ele>85</ele>
        <time>2020-09-27T16:09:04+02:00</time>
      </trkpt>
      <trkpt lat="48.03409" lon="-0.10628">
        <ele>86</ele>
        <time>2020-09-27T16:09:04+02:00</time>
      </trkpt>
      <trkpt lat="48.03431" lon="-0.10617">
        <ele>88</ele>
        <time>2020-09-27T16:09:04+02:00</time>
      </trkpt>
      <trkpt lat="48.03452" lon="-0.10603">
        <ele>89</ele>
        <time>2020-09-27T16:09:04+02:00</time>
      </trkpt>
      <trkpt lat="48.03474" lon="-0.10592">
        <ele>91</ele>
        <time>2020-09-27T16:09:04+02:00</time>
      </trkpt>
      <trkpt lat="48.03495" lon="-0.10582">
        <ele>92</ele>
        <time>2020-09-27T16:09:04+02:00</time>
      </trkpt>
      <trkpt lat="48.03507" lon="-0.10575">
        <ele>92</ele>
      </trkpt>
      <trkpt lat="48.03515" lon="-0.10573">
        <ele>92</ele>
      </trkpt>
      <trkpt lat="48.03518" lon="-0.10579">
        <ele>92</ele>
        <time>2020-09-27T16:11:12+02:00</time>
      </trkpt>
      <trkpt lat="48.03531" lon="-0.10607">
        <ele>91</ele>
        <time>2020-09-27T16:11:12+02:00</time>
      </trkpt>
      <trkpt lat="48.03543" lon="-0.10637">
        <ele>91</ele>
        <time>2020-09-27T16:11:12+02:00</time>
      </trkpt>
      <trkpt lat="48.03552" lon="-0.10669">
        <ele>91</ele>
        <time>2020-09-27T16:11:12+02:00</time>
      </trkpt>
      <trkpt lat="48.03566" lon="-0.10697">
        <ele>89</ele>
        <time>2020-09-27T16:13:20+02:00</time>
      </trkpt>
      <trkpt lat="48.03578" lon="-0.10725">
        <ele>87</ele>
        <time>2020-09-27T16:13:20+02:00</time>
      </trkpt>
      <trkpt lat="48.03599" lon="-0.10741">
        <ele>85</ele>
        <time>2020-09-27T16:13:20+02:00</time>
      </trkpt>
      <trkpt lat="48.03622" lon="-0.10743">
        <ele>83</ele>
        <time>2020-09-27T16:13:20+02:00</time>
      </trkpt>
      <trkpt lat="48.03645" lon="-0.10744">
        <ele>82</ele>
        <time>2020-09-27T16:13:20+02:00</time>
      </trkpt>
      <trkpt lat="48.03667" lon="-0.10738">
        <ele>81</ele>
        <time>2020-09-27T16:15:28+02:00</time>
      </trkpt>
      <trkpt lat="48.0369" lon="-0.10736">
        <ele>80</ele>
        <time>2020-09-27T16:15:28+02:00</time>
      </trkpt>
      <trkpt lat="48.037" lon="-0.10732">
        <ele>80</ele>
      </trkpt>
      <trkpt lat="48.03712" lon="-0.10739">
        <ele>79</ele>
        <time>2020-09-27T16:15:28+02:00</time>
      </trkpt>
      <trkpt lat="48.03724" lon="-0.10766">
        <ele>77</ele>
        <time>2020-09-27T16:15:28+02:00</time>
      </trkpt>
      <trkpt lat="48.03745" lon="-0.10783">
        <ele>76</ele>
        <time>2020-09-27T16:15:28+02:00</time>
      </trkpt>
      <trkpt lat="48.03767" lon="-0.10793">
        <ele>75</ele>
        <time>2020-09-27T16:15:28+02:00</time>
      </trkpt>
      <trkpt lat="48.03785" lon="-0.10798">
        <ele>75</ele>
        <time>2020-09-27T16:17:36+02:00</time>
      </trkpt>
      <trkpt lat="48.03799" lon="-0.10798">
        <ele>75</ele>
      </trkpt>
      <trkpt lat="48.03811" lon="-0.10802">
        <ele>74</ele>
        <time>2020-09-27T16:17:36+02:00</time>
      </trkpt>
      <trkpt lat="48.03833" lon="-0.10809">
        <ele>74</ele>
        <time>2020-09-27T16:17:36+02:00</time>
      </trkpt>
      <trkpt lat="48.03841" lon="-0.1081">
        <ele>74</ele>
      </trkpt>
      <trkpt lat="48.03842" lon="-0.10825">
        <ele>74</ele>
      </trkpt>
      <trkpt lat="48.03841" lon="-0.10843">
        <ele>74</ele>
        <time>2020-09-27T16:17:36+02:00</time>
      </trkpt>
      <trkpt lat="48.03836" lon="-0.10877">
        <ele>74</ele>
        <time>2020-09-27T16:17:36+02:00</time>
      </trkpt>
      <trkpt lat="48.0383" lon="-0.1091">
        <ele>74</ele>
        <time>2020-09-27T16:19:44+02:00</time>
      </trkpt>
      <trkpt lat="48.03834" lon="-0.10943">
        <ele>74</ele>
        <time>2020-09-27T16:19:44+02:00</time>
      </trkpt>
      <trkpt lat="48.03837" lon="-0.10978">
        <ele>75</ele>
        <time>2020-09-27T16:19:44+02:00</time>
      </trkpt>
      <trkpt lat="48.03837" lon="-0.11011">
        <ele>76</ele>
        <time>2020-09-27T16:19:44+02:00</time>
      </trkpt>
      <trkpt lat="48.03837" lon="-0.11046">
        <ele>77</ele>
        <time>2020-09-27T16:24:00+02:00</time>
      </trkpt>
      <trkpt lat="48.03838" lon="-0.11081">
        <ele>78</ele>
        <time>2020-09-27T16:24:00+02:00</time>
      </trkpt>
      <trkpt lat="48.03842" lon="-0.11115">
        <ele>78</ele>
        <time>2020-09-27T16:24:00+02:00</time>
      </trkpt>
      <trkpt lat="48.03847" lon="-0.11148">
        <ele>78</ele>
        <time>2020-09-27T16:24:00+02:00</time>
      </trkpt>
      <trkpt lat="48.03846" lon="-0.11166">
        <ele>78</ele>
      </trkpt>
      <trkpt lat="48.03845" lon="-0.11179">
        <ele>78</ele>
        <time>2020-09-27T16:24:00+02:00</time>
      </trkpt>
      <trkpt lat="48.03828" lon="-0.11203">
        <ele>77</ele>
        <time>2020-09-27T16:26:08+02:00</time>
      </trkpt>
      <trkpt lat="48.03813" lon="-0.11229">
        <ele>78</ele>
        <time>2020-09-27T16:26:08+02:00</time>
      </trkpt>
      <trkpt lat="48.03802" lon="-0.11258">
        <ele>78</ele>
        <time>2020-09-27T16:28:16+02:00</time>
      </trkpt>
      <trkpt lat="48.03793" lon="-0.1129">
        <ele>78</ele>
        <time>2020-09-27T16:28:16+02:00</time>
      </trkpt>
      <trkpt lat="48.03784" lon="-0.11322">
        <ele>78</ele>
        <time>2020-09-27T16:28:16+02:00</time>
      </trkpt>
      <trkpt lat="48.03775" lon="-0.11354">
        <ele>79</ele>
        <time>2020-09-27T16:30:24+02:00</time>
      </trkpt>
      <trkpt lat="48.03767" lon="-0.11384">
        <ele>80</ele>
        <time>2020-09-27T16:30:24+02:00</time>
      </trkpt>
      <trkpt lat="48.03763" lon="-0.11418">
        <ele>81</ele>
        <time>2020-09-27T16:30:24+02:00</time>
      </trkpt>
      <trkpt lat="48.03758" lon="-0.11451">
        <ele>83</ele>
        <time>2020-09-27T16:30:24+02:00</time>
      </trkpt>
      <trkpt lat="48.03753" lon="-0.11483">
        <ele>85</ele>
        <time>2020-09-27T16:30:24+02:00</time>
      </trkpt>
      <trkpt lat="48.03751" lon="-0.11519">
        <ele>87</ele>
        <time>2020-09-27T16:30:24+02:00</time>
      </trkpt>
      <trkpt lat="48.0375" lon="-0.1155">
        <ele>88</ele>
        <time>2020-09-27T16:32:32+02:00</time>
      </trkpt>
      <trkpt lat="48.03751" lon="-0.11571">
        <ele>89</ele>
      </trkpt>
      <trkpt lat="48.03762" lon="-0.11583">
        <ele>89</ele>
        <time>2020-09-27T16:32:32+02:00</time>
      </trkpt>
      <trkpt lat="48.0377" lon="-0.11582">
        <ele>89</ele>
      </trkpt>
      <trkpt lat="48.03777" lon="-0.11554">
        <ele>87</ele>
        <time>2020-09-27T16:34:40+02:00</time>
      </trkpt>
      <trkpt lat="48.03782" lon="-0.11535">
        <ele>86</ele>
      </trkpt>
      <trkpt lat="48.03795" lon="-0.11543">
        <ele>86</ele>
      </trkpt>
      <trkpt lat="48.03809" lon="-0.11548">
        <ele>85</ele>
      </trkpt>
      <trkpt lat="48.0381" lon="-0.11568">
        <ele>86</ele>
        <time>2020-09-27T16:34:40+02:00</time>
      </trkpt>
    </trkseg>
  </trk>
</gpx>